Regional Weather Roundup
Issued by NWS Newport/Morehead, NC

Home | Current Version | Previous Version | Text Only | Print | Product List | Glossary On
Versions: 1 2 3 4 5 6 7 8 9 10 11 12 13 14 15 16 17 18 19 20 21 22 23 24 25 26 27 28 29 30 31 32 33 34 35 36 37 38 39 40 41 42 43 44 45 46 47 48 49 50
000
ASUS42 KMHX 251713
RWRMHX
WEATHER ROUNDUP FOR EASTERN NORTH CAROLINA
NATIONAL WEATHER SERVICE NEWPORT/MOREHEAD CITY NC
100 PM EDT TUE APR 25 2017

NOTE: "FAIR" INDICATES FEW OR NO CLOUDS BELOW 12,000 FEET
WITH NO SIGNIFICANT WEATHER AND/OR OBSTRUCTIONS TO VISIBILITY

NCZ015>017-031-032-045>047-102-103-251800-
NORTH COAST

CITY           SKY/WX    TMP DP  RH WIND       PRES   REMARKS
EDENTON        PTSUNNY   72  62  72 SE5       29.65S
ELIZABETH CITY LGT RAIN  71  63  75 SE5       29.64F
KITTY HAWK     PTSUNNY   65  59  79 E5        29.65R
MANTEO         LGT RAIN  65  61  85 SE7       29.67R

$$

NCZ045>047-081-094-103-104-251800-
CENTRAL COAST

CITY           SKY/WX    TMP DP  RH WIND       PRES   REMARKS
FRISCO         CLOUDY    65  62  90 VRB3      29.64F FOG

$$

NCZ095-097-098-100-101-251800-
SOUTHERN COAST

CITY           SKY/WX    TMP DP  RH WIND       PRES   REMARKS
BEAUFORT       CLOUDY    71  65  81 VRB5      29.62F
CEDAR ISLAND   NOT AVBL
JACKSONVILLE   NOT AVBL
PINEY ISLAND   CLOUDY   N/A N/A N/A E7        29.64R HAZE
WILMINGTON     CLOUDY    70  61  73 W13       29.62F


$$

NCZ011>013-027>030-043-044-078>080-089-090>093-098-251800-
COASTAL PLAIN

CITY           SKY/WX    TMP DP  RH WIND       PRES   REMARKS
AHOSKIE          N/A     71  60  69 S8        29.63S
CLINTON        PTSUNNY   71  62  74 N3        29.62F
ELIZABETHTOWN  CLOUDY    65  61  87 SW6       29.64S
GOLDSBORO      CLOUDY    70  63  78 CALM      29.60F
GREENVILLE     MOSUNNY   73  59  60 CALM      29.65F
HAVELOCK       PTSUNNY   75  63  66 VRB6      29.62F
KENANSVILLE    PTSUNNY   70  63  78 NW7       29.62S
KINSTON        PTSUNNY   72  59  64 CALM      29.61F
NEW BERN       MOSUNNY   72  62  71 E7        29.62F
RICHLANDS      PTSUNNY   74  62  66 SW6       29.61F
ROCKY MOUNT    CLOUDY    69  61  75 SW5       29.63S
WASHINGTON     MOSUNNY   71  62  71 E5        29.63S
WHITEVILLE     CLOUDY    64  60  85 W5        29.65F

$$

AMZ130-135-150-152-154-156-158-170-250-252-270-ANZ085-086-088-633-658-670-251800-
MARINE OBSERVATIONS

STATION/POSITION TIME  TEMP    WIND        PRES    WAVE   SWELL
                       AIR SEA DIR/SP/G            HT/PER HT/PER
                 (UTC) (F)     (DEG/KT/KT) (MB)    (FT/S) (FT/S)
CHESAPEAKE LIGHT NOT AVBL
64 E VA BEACH    1650   59 54  130/  4/  8 1005.4   13/11  13/11
DUCK             1648   63 59   90/ 12/ 13 1003.8
2 E DUCK         1700      58                N/A     9/10   5/13
OREGON INLET     1642   63 63  160/  6/ 10 1004.5
13E OREGON INLT  1648      58                N/A     9/11   8/11
HATTERAS CG      1648   63 67   20/  5/  7 1003.6
DIAMOND BUOY     1650   67 78  290/  4/  8 1003.6   10/11  10/11
CAPE LOOKOUT     1700   66     110/  6/  6 1002.9
BEAUFORT LAB     1648   69 65  180/  6/  7 1002.1
30 SE NEW RVR IN 1608   66     260/ 10/ 16 1003.7
30 SE NEW RVR IN 1643      71                N/A     7/12   3/12
27 SE WRIGHTSVLE 1608   67 72  250/ 14/ 21 1003.6
5 SE WRIGHTSVLE  1608   67 69  230/ 12/ 16 1003.2
225 S CAPE HAT   1650   74 75  220/ 19/ 21 1007.0    8/10   5/10
41 SE CHARLESTON 1650   65 73  260/ 17/ 21 1006.0    6/10   3/10

$$



USA.gov is the U.S. government's official web portal to all federal, state and local government web resources and services.